Charlevoix, MI

8:18 AM EST on February 13, 2016 (GMT -0500)
1.5 W Ironton | | Change Station
CLOSE
Current Station
Personal Weather Station
Location: Charlevoix, MI
Elevation: 750 ft
Nearby Weather Stations

Elev 750 ft 45.26 °N, 85.22 °W | Updated 30 seconds ago

Overcast
Overcast
-10.1 °F
Feels Like -10 °F
N
3.0
Wind Variable Wind from SE
Gusts 8.0 mph

Today
High -- | Low -- °F
--% Chance of Precip.
Yesterday
High -- | Low -- °F
Precip. -- in
Pressure 30.43 in
Visibility 10.0 miles
Clouds Mostly Cloudy 2100 ft
Mostly Cloudy 2900 ft
Overcast 3600 ft
Windchill -10 °F
Dew Point -14 °F
Humidity 81%
Rainfall 0.00 in
Snow Depth Not available.
7:46 AM 6:04 PM
Waxing Crescent, 30% visible
METAR KCVX 131314Z AUTO 14006KT 10SM BKN021 BKN029 OVC036 M23/M26 A3043 RMK AO2 T12261260
Pressure 30.43 in
Visibility 10.0 miles
Clouds Mostly Cloudy 2100 ft
Mostly Cloudy 2900 ft
Overcast 3600 ft
Windchill -10 °F
Dew Point -14 °F
Humidity 81%
Rainfall 0.00 in
Snow Depth Not available.
7:46 AM 6:04 PM
Waxing Crescent, 30% visible
METAR KCVX 131314Z AUTO 14006KT 10SM BKN021 BKN029 OVC036 M23/M26 A3043 RMK AO2 T12261260

10-Day Weather Forecast

Almanac

Astronomy

Feb. 13, 2016 Rise Set
Actual Time
Civil Twilight
Nautical Twilight
Astronomical Twilight
Moon
Length of Visible Light
Length of Day
Tomorrow will be .
, % of the Moon is Illuminated

Today's Extremes

State Highs State Lows

Community

WunderPhotos

Upload Photos

1,892,545 photos uploaded!

WunderBlog® & News

Nearby

Air Quality

  Air Quality AQ Index Pollutant
Not available.

Snow Depth

Station Depth Elevation

Earthquake Activity

City Distance Mag. Time & Date
Minimum magnitude displayed is 2.5.

Coastal Water Temperatures

Place Temperature

Stations

Nearby Weather Stations

Station Location Temp. Windchill Dew Point Humidity Wind Precip. Elev Updated Type
                   

Watches & Warnings

Wind Chill Advisory
Issued: 3:53 AM EST Feb. 13, 2016 – National Weather Service

... Wind Chill Advisory in effect until noon EST today...
... Winter Weather Advisory is cancelled...

The National Weather Service in Gaylord has issued a Wind Chill
Advisory... which is in effect until noon EST today. The Winter
Weather Advisory has been cancelled.

* Wind chill values of 20 to 30 below zero will be felt into the
morning.

* It only takes 20 to 30 minutes of unprotected exposure to these
temperatures to get frostbite.

Precautionary/preparedness actions...

A Wind Chill Advisory means that very cold air and strong winds
will combine to generate low wind chills. This will result in
frost bite and lead to hypothermia if precautions are not taken.
If you must venture outdoors... make sure you wear a hat and
gloves.